Regional Weather Roundup
Issued by NWS

Home | Current Version | Previous Version | Graphics & Text | Print | Product List | Glossary On
Versions: 1 2 3 4 5 6 7 8 9 10 11 12 13 14 15 16 17 18 19 20 21 22 23 24 25 26 27 28 29 30 31 32 33 34 35 36 37 38 39 40 41 42 43 44 45 46 47 48 49 50
000
ASUS45 KTFX 021910
RWRMT
MONTANA REGIONAL WEATHER ROUNDUP
NATIONAL WEATHER SERVICE GREAT FALLS MT
1200 PM MST FRI DEC 02 2016

NOTE: "FAIR" INDICATES FEW OR NO CLOUDS BELOW 12000 FEET WITH NO
SIGNIFICANT WEATHER AND/OR OBSTRUCTIONS TO VISIBILITY.

MTZ001>007-043-022000-
WEST OF THE DIVIDE

CITY           SKY/WX    TMP DP  RH WIND       PRES   REMARKS
KALISPELL      CLOUDY    37  25  61 W9G17     30.22F WCI  30
MISSOULA       CLOUDY    31  28  89 N3        30.29F
BUTTE          SUNNY     28  13  53 CALM      30.17F
MULLAN PASS    CLOUDY    21  18  88 VRB6      30.15F WCI  13
ANACONDA         N/A     28  10  47 W12       30.19F WCI  18
DEER LODGE       N/A     30  21  69 E3        30.22F
EUREKA           N/A     37  21  52 SE3       30.21F
HAMILTON         N/A     36  12  38 S6        30.27S WCI  31
LIBBY            N/A     36  27  69 SE5       30.23F
PLAINS           N/A     38  22  52 S7        30.26F
RONAN            N/A     35  22  59 CALM      30.28S
$$

MTZ008-052>055-022000-
SOUTHWEST MONTANA

CITY           SKY/WX    TMP DP  RH WIND       PRES   REMARKS
BOZEMAN        CLOUDY    30  21  69 E3        30.22F
DILLON         MOSUNNY   32  12  43 SW13      30.19F WCI  22
W YELLOWSTONE  CLOUDY    19  14  79 NE5       30.18F
ENNIS          CLOUDY    28  16  59 S10       30.24F WCI  19
THREE FORKS      N/A     36  -3  19 SW6       30.17F WCI  31
TWIN BRIDGES     N/A     32  15  49 SE12      30.17F WCI  23
$$

MTZ009-010-012-014-046-048-049-054-022000-
EAST SLOPES AND CENTRAL MONTANA

CITY           SKY/WX    TMP DP  RH WIND       PRES   REMARKS
CUT BANK       SUNNY     35  21  56 W25G31    30.00F WCI  23
GREAT FALLS    SUNNY     32  23  69 SW16      30.08F WCI  21
MALMSTROM AFB  SUNNY     31  25  80 SW13      30.09F WCI  21
HELENA         MOSUNNY   35  14  42 W22G29    30.18F WCI  23
AUGUSTA          N/A     33  19  55 W24G30    30.04F WCI  21
BOWMANS CRNR     N/A     32  20  63 SW21G28   30.05F WCI  20
CHOTEAU          N/A     36  19  51 W16G23    30.05F WCI  26
CONRAD           N/A     35  31  86 NW2       30.05F
FAIRFIELD        N/A     35  21  56 SW14      30.04F WCI  26
POWER            N/A     32  24  73 SW15G22   30.05F WCI  22
RAYNESFORD       N/A     32  20  59 SW14      30.10F WCI  22
ULM              N/A     34  22  62 SW12G18   30.10F WCI  25
$$

MTZ011-013-016-021-045-047-050-051-022000-
NORTH CENTRAL MONTANA

CITY           SKY/WX    TMP DP  RH WIND       PRES   REMARKS
HAVRE          SUNNY     33  27  78 SW20      30.08F WCI  21
LEWISTOWN      SUNNY     33  21  61 W15       30.10F WCI  23
N BAR RANCH      N/A     36  19  51 CALM      30.10F
CHINOOK          N/A     34  28  80 CALM      30.09F
DENTON           N/A     34  22  61 SW17G25   30.08F WCI  23
GEYSER           N/A     33  21  61 SW17G24   30.07F WCI  22
GRASS RANGE      N/A     36  22  56 W12       30.08F WCI  28
JUDITH GAP       N/A     30  18  61 W22G31    30.10F WCI  17
ROY              N/A     38  19  45 MISG      30.09F
STANFORD         N/A     34  20  58 W8        30.08F WCI  27
WINIFRED         N/A     35  23  61 MISG      30.09F
$$

MTZ017>020-022>027-061-062-022000-
NORTHEAST MONTANA

CITY           SKY/WX    TMP DP  RH WIND       PRES   REMARKS
GLASGOW        CLOUDY    31  25  78 S8        30.13F WCI  23
JORDAN           N/A     40  28  62 W10       30.13F
SIDNEY         CLOUDY    29  26  89 S9        30.18F WCI  20
WOLF POINT     CLOUDY    33  26  75 SW6       30.16F WCI  28
PLENTYWOOD       N/A     28  27  93 CALM      30.14F
POPLAR           N/A     32  25  74 SW5       30.17S
SCOBEY           N/A     28  20  72 S1        30.09F
$$

MTZ028>42-056>058-022000-
SOUTHCENTRAL AND SOUTHEAST MONTANA

CITY           SKY/WX    TMP DP  RH WIND       PRES   REMARKS
BAKER          CLOUDY    30  25  81 W8        30.18F WCI  22
BILLINGS       MOSUNNY   39  22  50 VRB5      30.16F
LIVINGSTON     PTSUNNY   34  17  50 W24       30.16F WCI  21
MILES CITY     CLOUDY    34  26  72 CALM      30.18F
BIG TIMBER     PTSUNNY   36  18  48 W26       30.16F WCI  23
EKALAKA          N/A     30  24  78 SW5       30.12F
FORSYTH          N/A     37  27  65 W6        30.17F
HARLOWTON        N/A     35  15  43 W31       30.11F WCI  22
LAUREL           N/A     38  15  39 S7        30.13F
ROUNDUP          N/A     39  23  53 SW10      30.04F
$$

REGIONAL REPORTS...DAKOTAS

CITY           SKY/WX    TMP DP  RH WIND       PRES   REMARKS
WILLISTON      CLOUDY    29  24  82 S6        30.17F WCI  23
MINOT          CLOUDY    29  24  82 S6        30.19F WCI  23
DICKINSON      CLOUDY    25  22  88 W9        30.15S WCI  15
BEACH          CLOUDY    28  28 100 W10       30.19F WCI  19
CROSBY         CLOUDY    28  28 100 SW8       30.17F WCI  20
TIOGA          CLOUDY    27  27 100 SW9       30.16F WCI  17
WATFORD CITY   PTSUNNY   28  25  86 W7        30.17F WCI  21
BISMARCK       CLOUDY    26  18  71 SE5       30.25F
GRAND FORKS    CLOUDY    32  21  64 N9        30.25F WCI  24
FARGO          CLOUDY    30  21  69 NW9       30.27S WCI  22
BUFFALO SD       N/A     34  27  75 W16       30.11S WCI  24
RAPID CITY     CLOUDY    37  24  59 NW14      30.20R WCI  28
$$

REGIONAL REPORTS...WYOMING/IDAHO/WASHINGTON

CITY           SKY/WX    TMP DP  RH WIND       PRES   REMARKS
GILLETTE       MOSUNNY   36  23  59 NW6       30.17F WCI  31
SHERIDAN       SUNNY     39  21  48 NW3       30.17F
BUFFALO WY     SUNNY     38  18  44 S9        30.16F WCI  31
CODY           SUNNY     35   5  28 W8        30.15F WCI  29
YELLOWSTONE LA   N/A     20   6  55 VRB5      30.14F
IDAHO FALLS    CLOUDY    23  22  96 CALM      30.30S FOG
SALMON         MOSUNNY   34  19  55 CALM      30.27F
BOISE          SUNNY     33  23  66 MISG      30.39F
SPOKANE        CLOUDY    33  31  92 S10       30.28F WCI  25
$$

REGIONAL REPORTS...ALBERTA

CITY           SKY/WX    TMP DP  RH WIND       PRES   REMARKS
EDMONTON       MOSUNNY   27  25  93 S12       29.82F WCI  16
CALGARY        MOSUNNY   30  18  59 S2        29.84F
LETHBRIDGE     MOSUNNY   39  18  41 SW18G24   29.94F WCI  30
MEDICINE HAT   SUNNY     39  23  52 S14       29.99F WCI  31
WATERTON GATE    N/A     34  16  47 SW25G36     N/A  WCI  21
CARDSTON         N/A     37  18  44 W12G20      N/A  WCI  30
MILK RIVER       N/A     37  25  60 SW17G23     N/A  WCI  28
ONEFOUR          N/A     30  27  86 SE6         N/A  WCI  24
$$

REGIONAL REPORTS...SASKATCHEWAN

CITY           SKY/WX    TMP DP  RH WIND       PRES   REMARKS
SWIFT CURRENT  CLOUDY    23  21  93 W10       30.03F WCI  12
REGINA         FRZ DRZL  27  25  93 SW7       30.12F FOG     WCI  19
SASKATOON      FLURRIES  27  23  86 SW9       30.09F WCI  17
VAL MARIE        N/A     30  25  80 SW7         N/A  WCI  23
ROCKGLEN         N/A     25  23  93 MISG        N/A
ASSINIBOIA       N/A     28  27  93 S13         N/A  WCI  18
$$



USA.gov is the U.S. government's official web portal to all federal, state and local government web resources and services.